www.pogodaiklimat.ru

Погода и климат >> Архив погоды >> Иран >> Тегеран


АРХИВ ПОГОДЫ в Тегеране

Время (UTC), дата Ветер
(напр.,м/с)
 
Видим.   Явления Облачность Т
(С)
Тd
(С)
f
(%)
Тe
(С)
Тes
(С)
Комфортность P
(гПа)
Po
(гПа)
Тmin
(С)
Tmax
(С)
R
(мм)
R24
(мм)
S
(см)
06 16.05 Ю 4 10 км 1/1 1200 м
[Cu hum]
+23.7 +2.0 24 +23 +32 комфорт 1009.4 882.3
09 16.05 З 6 10 км 1/1 1200 м
[Cu hum]
+26.1 -0.8 17 +24 +31 комфорт 1008.5 880.8
12 16.05 З 9 14 км 1/1 1200 м
[Cu hum]
+28.9 -8.7 8 +25 +26 комфорт 1005.8 878.4
15 16.05 З 5 10 км 1/1 1200 м
[Cu hum]
+29.0 -5.7 10 +26 +26 жарко 1003.5 877.4 +29.7
18 16.05 З 2 10 км ясно +24.6 -6.7 12 +22 +22 комфорт 1005.0 878.3
21 16.05 СЗ 4 10 км ясно +21.0 +3.7 32 +22 +22 комфорт 1005.4 878.6
00 17.05 СВ 4 10 км ясно +21.4 +1.1 26 +21 +21 комфорт 1005.9 879.6
03 17.05 С 2 10 км 4/1 1200 м
[Cu hum Ac trans]
+21.3 +1.6 27 +21 +22 комфорт 1007.1 880.7 +19.2
06 17.05 ЮВ 2 15 км ясно +23.7 +0.1 21 +23 +37 комфорт 1008.8 881.7
09 17.05 Ю 4 15 км 3/3 1050 м
[Cu hum Ac trans]
+27.1 -0.9 16 +25 +35 комфорт 1006.9 880.0
12 17.05 З 9 15 км 4/3 1050 м
[Cu hum Ac trans]
+30.1 -2.4 12 +27 +28 жарко 1003.3 877.5
15 17.05 З 6 22 км 6/4 1050 м
[Sc diur, vesp Cs]
+28.9 -2.3 13 +26 +26 жарко 1003.0 877.0 +30.4
18 17.05 СЗ 4 12 км 6/3 1200 м
[Sc diur, vesp Cs]
+25.3 -3.2 15 +23 +23 комфорт 1005.1 878.6
21 17.05 З 5 10 км 6/1 1200 м
[Sc diur, vesp Ac trans]
+19.2 +7.6 47 +20 +20 по сезону 1005.9 879.0
00 18.05 З 3 10 км 1/0
[Ac trans]
+17.9 +6.4 47 +18 +18 по сезону 1005.7 879.1
03 18.05 СЗ 2 10 км 3/3 1050 м
[Cu hum]
+20.0 +1.9 30 +21 +22 комфорт 1007.1 880.4 +16.8
06 18.05 ЮЗ 4 10 км ясно +24.2 +3.0 25 +23 +33 комфорт 1007.7 881.1
09 18.05 Ю 4 10 км 1/1 1050 м
[Cu hum]
+27.2 -0.8 16 +25 +37 комфорт 1007.4 880.1
12 18.05 З 7 12 км 3/1 1050 м
[Cu hum Ci fib]
+30.4 -9.2 7 +26 +29 жарко 1004.5 877.8
15 18.05 З 7 12 км 1/1 1050 м
[Cu hum Ci fib]
+29.2 -5.5 10 +26 +26 жарко 1003.6 877.2 +30.6
18 18.05 СЗ 2 10 км ясно +24.8 -7.6 11 +22 +22 комфорт 1005.5 878.8
21 18.05 В 4 10 км 5/0
[Ac trans]
+24.2 -5.9 13 +22 +22 комфорт 1005.8 879.6
00 19.05 штиль 0 10 км 6/3 1200 м
[Sc diur, vesp Ac trans]
+22.2 -1.2 21 +21 +21 комфорт 1005.5 879.7
03 19.05 штиль 0 10 км 5/1 1200 м
[Sc Ci fib]
+22.7 -2.1 19 +21 +24 комфорт 1006.8 880.7 +18.2
06 19.05 Ю 3 10 км 6/1 1200 м
[Cu hum Cs]
+25.4 -1.4 17 +24 +33 комфорт 1008.0 881.4
09 19.05 ЮЗ 3 10 км 4/3 1200 м
[Cu hum Ci sp]
+28.9 -1.2 14 +26 +38 жарко 1005.9 880.1
12 19.05 ЮЗ 6 14 км 6/3 1350 м
[Cu hum Cs]
+30.6 -0.9 13 +27 +30 жарко 1003.6 878.0
15 19.05 З 9 10 км 4/3 1050 м
[Cb calv Ci sp]
+27.1 +2.9 21 +26 +26 жарко 1004.1 877.8 +31.0
18 19.05 З 3 10 км 5/1 1050 м
[Sc diur, vesp Ac As]
+26.4 +0.9 19 +25 +25 комфорт 1004.9 879.0
21 19.05 З 6 10 км 4/3 1050 м
[Cb calv Ac As]
+23.2 +4.2 29 +23 +23 комфорт 1006.4 880.5
00 20.05 З 6 10 км 4/1 1050 м
[Sc diur, vesp Ac As]
+20.8 +7.1 41 +22 +22 комфорт 1006.4 880.4
03 20.05 З 4 10 км 8/1 1050 м
[Sc diur, vesp Ac As Cs]
+21.0 +7.6 42 +22 +23 комфорт 1007.5 880.8 +20.0
06 20.05 З 7 10 км 6/1 1200 м
[Cu hum Ac trans Cc]
+25.9 +4.9 26 +25 +28 комфорт 1006.5 880.6
09 20.05 З 9 10 км 5/3 1200 м
[Cu med, cong Ci]
+28.5 +4.1 21 +27 +28 жарко 1005.1 879.3
12 20.05 З 10 10 км 8/4 1200 м
[Cb calv Ac trans Cs]
+29.6 +0.3 15 +27 +27 жарко 1003.8 877.8
15 20.05 З 11 10 км 9/6 1050 м
[Cb calv Ac und Cs]
+25.2 +2.0 22 +24 +24 комфорт 1005.9 878.8 +30.4
18 20.05 ЮВ 4 10 км 8/3 1200 м
[Sc diur, vesp Ac As Ci fib]
+25.3 +2.1 22 +24 +24 комфорт 1006.2 880.1
21 20.05 СЗ 2 10 км 6/1 1200 м
[Sc diur, vesp Ac As Cs]
+21.7 +2.9 29 +22 +22 комфорт 1006.5 880.2
00 21.05 В 2 10 км 8/1 1200 м
[Sc diur, vesp Ac As Cs]
+22.2 +2.8 28 +22 +22 комфорт 1005.6 879.7
03 21.05 штиль 0 9000 м мгла 10/1 1200 м
[Sc diur, vesp Ac As Cs]
+21.3 +4.0 32 +22 +23 комфорт 1012.0 880.2 +20.3
06 21.05 Ю 2 8000 м мгла 9/4 1050 м
[Sc Ac As Cs]
+24.3 +3.0 25 +24 +29 комфорт 1007.4 880.8
09 21.05 ЮВ 3 10 км 8/3 900 м
[Cu med, cong Ac trans Cs]
+27.1 +3.6 22 +26 +33 жарко 1007.1 880.4
12 21.05 З 7 12 км 8/3 900 м
[Cb calv Cs]
+28.6 -1.5 14 +26 +28 жарко 1005.2 879.0
15 21.05 З 6 15 км 8/4 900 м
[Cb calv Ac trans Cs]
+27.8 -2.1 14 +25 +25 комфорт 1005.2 878.7 +29.2
18 21.05 ЮЗ 8 10 км гроза без осадков 8/5 1020 м
[Cb cap Ac trans]
+20.9 +6.1 38 +21 +21 комфорт 1007.8 880.4
21 21.05 СЗ 3 8000 м гроза, ливневой дождь 9/6 1050 м
[Cb cap Ac trans]
+15.7 +10.9 73 +15 +15 очень
холодно
1012.3 884.1
00 22.05 СЗ 3 10 км {гроза, дождь} 8/1 1200 м
[Sc diur, vesp Ac trans Cs]
+16.0 +8.7 62 +16 +16 холодно 1010.4 882.7 3
03 22.05 СЗ 3 10 км 8/5 600 м
[Sc Ac As Cs]
+14.8 +8.1 64 +14 +15 очень
холодно
1011.9 883.6 +14.2
06 22.05 ЮЗ 4 10 км 5/3 1050 м
[Cu hum Ac As Ci sp]
+18.8 +7.3 47 +19 +25 холодно 1013.1 884.0
09 22.05 ЮЗ 3 10 км 5/3 1050 м
[Cu hum Ci fib]
+22.2 +4.7 32 +22 +34 комфорт 1011.7 882.3
12 22.05 ЮЗ 3 10 км 6/4 900 м
[Cb calv Cs]
+24.6 +3.8 26 +24 +29 комфорт 1009.4 880.8
15 22.05 З 5 10 км 4/3 1050 м
[Cu med, cong Ci fib]
+24.3 +3.0 25 +24 +24 комфорт 1009.2 880.3 +25.0
18 22.05 ЮВ 6 10 км 5/3 1050 м
[Sc Ac trans Ci fib]
+19.3 +7.1 45 +20 +20 холодно 1011.2 882.0
21 22.05 штиль 0 10 км ясно +17.8 +7.3 50 +18 +18 холодно 1010.9 882.1
00 23.05 штиль 0 10 км ясно +16.2 +7.2 55 +16 +16 холодно 1010.4 881.8

 

Местоположение метеостанции Тегеран (Иран): широта 35.68 долгота 51.32 высота над уровнем моря 1191 м.

В архиве по умолчанию представлена погода в Тегеране за последнюю неделю. Архивные данные за месяц целиком и за предыдущие месяцы, начиная с января 2011 года, Вы можете получить, выбрав интересующий диапазон дат из раскрывающегося списка и нажав кнопку "Ввод!".


*Определитесь, кто Вы:
робот инопланетянин человек

Внимание! Время в таблицах - всемирное. Для получения местного времени необходимо прибавить поправку, которая равна 3.5 ч.

Смотрите также архив погоды в соседних городах и на ближайших метеорологических станциях:

Погода в Ноушехре (Иран) (109 км)
Погода в Казвине (Иран) (135 км)
Погода в Рамсаре (Иран) (148 км)
Погода в Эскандар Кола (Иран) (160 км)
Погода в Бабольсере (Иран) (166 км)
Погода в Семнане (Иран) (187 км)
Погода в Кашане (Иран) (189 км)
Погода в Араке (Иран) (226 км)
Погода в Реште (Иран) (227 км)
Погода в Энзели (Иран) (259 км)

Пояснения к столбцам:

Ветер - указаны скорость ветра в м/с - средняя за 10 мин, порывы в срок и между сроками (в фигурных скобках) и направление, откуда дует ветер: С - северный, СВ - северо-восточный, В - восточный, ЮВ - юго-восточный, Ю - южный, ЮЗ - юго-западный, З - западный, СЗ - северо-западный.
Видимость - горизонтальная дальность видимости в метрах или километрах. При видимости от 1 до 10 км при отсутствии осадков обычно наблюдается дымка, при ухудшении видимости до 1 км и менее - туман. В сухую погоду видимость может ухудшаться дымом, пылью или мглою.
Явления - указаны атмосферные явления, наблюдавшиеся в срок или в последний час перед сроком; фигурными скобками обозначены явления, наблюдавшиеся между сроками (за 1-3 часа до срока); квадратными скобками обозначены град или гололедные отложения с указанием их диаметра в мм.
Облачность - указаны через наклонную черту общая и нижняя облачность в баллах и высота нижней границы облаков в метрах; квадратными скобками обозначены формы облаков: Ci - перистые, Cs - перисто-слоистые, Cc - перисто-кучевые, Ac - высококучевые, As - высокослоистые, Sc - слоисто-кучевые, Ns - слоисто-дождевые, Cu - кучевые, Cb - кучево-дождевые. Подробнее классификацию облаков см. в Атласе облаков (PDF).
T - Температура воздуха - температура, измеренная на высоте 2 м над землей.
Td - Температура точки росы - температура, при понижении до которой содержащийся в воздухе водяной пар достигнет насыщения.
f - Относительная влажность воздуха - влажноcть воздуха, измеренная на высоте 2 м над землей.
Te - Эффективная температура - температура, которую ощущает одетый по сезону человек в тени. Характеристика душности погоды. При расчете учитывается влияние влажности воздуха и скорости ветра на теплоощущения человека.
Tes - Эффективная температура на солнце - температура, которую ощущает человек, с поправкой на солнечный нагрев. Характеристика знойности погоды. Зависит от высоты солнца над горизонтом, облачности и скорости ветра. Ночью, в пасмурную погоду, а также при ветре 12 м/с и более поправка равна нулю.
P - Атмосферное давление - приведенное к уровню моря атмосферное давление.
Po - Атмосферное давление - измеренное на уровне метеостанции атмосферное давление.
Tmin - Минимальная температура - минимум температуры воздуха на высоте 2 м над землей.
Tmax - Максимальная температура - максимум температуры воздуха на высоте 2 м над землей.
R - Количество осадков - Количество выпавших осадков за период времени, мм. При наведении курсора мыши на число - период времени, за который выпало указанное количество осадков.
R24 - Количество осадков - Количество выпавших осадков за 24 часа, мм.
S - Снежный покров - Высота снежного покрова, см. При наведении курсора мыши на число - состояние снежного покрова и степень покрытия местности в баллах.